Retour au catalogue

COSMOS 2251 DEB

ActifLEO
NORAD 33999·DEBRIS·🇷🇺 Russia

Lancé Jun 16, 1993 depuis Plesetsk Cosmodrome

Loading…

Prochains Passages (prochaines 24 heures)

TLE

FraisSource: Space-Track

Époque: Sep 13, 2026, 19:23 UTC

1 33999U 93036GJ  26256.80803769  .00008992  00000-0  93775-3 0  9998
2 33999  73.9163  39.2715 0039868 227.5730 132.2077 14.89292389933384

Suivez COSMOS 2251 DEB en temps réel avec AllMySat

Download on the App Store